Simultaneous Nadir Overpasses (SNOs) Predictions

Prediction of SNOs between GOES-15 and LANDSAT-8 Satellite Orbit:

Table of predicted SNOs for the next 14.0 days since TLE Epoch: 1/20/2024
Index Date Time (GOES-15) GOES-15 Lat,Lon LANDSAT-8 Lat,Lon Distance(km) Time Diff (sec)
1 01/20/2024 17:47:31 0.01, 61.66 0.89, 65.76 465.88 80
2 01/21/2024 06:08:46 -0.00, 61.68 0.22, 60.61 122.23 80
3 01/23/2024 05:59:13 -0.01, 61.73 -0.40, 63.57 209.49 80
4 01/23/2024 18:20:36 0.01, 61.72 -0.68, 58.38 379.82 80
5 01/25/2024 18:08:22 0.01, 61.77 -0.09, 61.35 48.20 80
6 01/27/2024 17:53:29 -0.00, 61.82 0.52, 64.32 283.76 80
7 01/28/2024 06:14:43 0.01, 61.86 0.57, 59.16 306.41 80
8 01/30/2024 06:05:08 0.02, 61.91 -0.01, 62.14 25.93 80
9 02/01/2024 05:52:54 0.02, 61.96 -0.67, 65.10 357.71 80
10 02/01/2024 18:14:17 -0.02, 61.94 -0.44, 59.91 229.81 80
